Location: Unspecified
(0.0000°N, 0.0000°E)
Time: 16:28:59
(UTC+00:00)

Tiros 1 - Pass Details

Date: 29 May 2026
Orbit: 618 x 649 km, 48.4° (Epoch: 6 June)

Event Time Altitude Azimuth Distance (km) Brightness Sun altitude
Rises 04:16:01 0° 290° (WNW) 2,874 - -23.5°
Reaches altitude 10° 04:19:06 10° 268° (W) 1,970 - -22.7°
Maximum altitude 04:21:53 16° 230° (SW) 1,612 - -22.1°
Drops below altitude 10° 04:24:41 10° 192° (SSW) 1,975 - -21.5°
Exits shadow 04:27:44 - 170° (S) 2,865 10.3 -20.8°
Sets 04:27:47 0° 170° (S) 2,884 10.4 -20.8°
